Location: Harwich
(41.7160°N, 69.9939°W)
Time: 01:02:22
(UTC+02:00)

Gurwin Techsat 1B - Visible Passes

Search period start: 21 June 2025 00:00
Search period end: 01 July 2025 00:00
Orbit: 809 x 812 km, 99.0° (Epoch: 20 June)

Date Brightness Start Highest point End Pass type
(mag) Time Alt. Az. Time Alt. Az. Time Alt. Az.
23 Jun 10.7 10:15:43 10° NE 10:20:07 26° E 10:24:30 10° SSE visible
24 Jun 11.2 09:53:13 10° NE 09:56:24 16° E 09:59:34 10° SE visible
27 Jun 10.5 10:21:30 10° NE 10:26:06 29° E 10:30:39 10° SSE visible
28 Jun 11.1 09:58:50 10° NE 10:02:23 18° E 10:05:54 10° SE visible
29 Jun 11.6 09:37:57 10° E 09:38:35 10° E 09:39:14 10° E visible
